Time,TemperatureF,DewpointF,PressureIn,WindDirection,WindDirectionDegrees,WindSpeedMPH,WindSpeedGustMPH,Humidity,HourlyPrecipIn,Conditions,Clouds,dailyrainin,SoftwareType,DateUTC
2013-04-07 00:00:00,47.9,36.7,30.19,NW,323,1.0,1.0,65,0.00,,---,0.00,VWS V14.01,2013-04-07 04:00:00,
2013-04-07 00:05:00,48.4,35.6,30.19,NW,322,4.0,6.0,61,0.00,,---,0.00,VWS V14.01,2013-04-07 04:05:00,
2013-04-07 00:10:00,48.5,36.9,30.18,NW,313,6.0,6.0,64,0.00,,---,0.00,VWS V14.01,2013-04-07 04:10:00,
2013-04-07 00:15:00,48.0,36.8,30.18,WNW,303,0.0,6.0,65,0.00,,---,0.00,VWS V14.01,2013-04-07 04:15:00,
2013-04-07 00:20:00,47.6,37.2,30.19,NW,308,0.0,4.0,67,0.00,,---,0.00,VWS V14.01,2013-04-07 04:20:00,
2013-04-07 00:25:00,47.1,37.1,30.19,NW,307,0.0,2.0,68,0.00,,---,0.00,VWS V14.01,2013-04-07 04:25:00,
2013-04-07 00:30:00,46.8,37.2,30.19,NW,307,2.0,2.0,69,0.00,,---,0.00,VWS V14.01,2013-04-07 04:30:00,
2013-04-07 00:35:00,46.7,37.1,30.18,NW,307,0.0,2.0,69,0.00,,---,0.00,VWS V14.01,2013-04-07 04:35:00,
2013-04-07 00:40:00,46.8,36.8,30.18,NW,307,0.0,2.0,68,0.00,,---,0.00,VWS V14.01,2013-04-07 04:40:00,
2013-04-07 00:45:00,46.5,36.9,30.18,NW,306,2.0,5.0,69,0.00,,---,0.00,VWS V14.01,2013-04-07 04:45:00,
2013-04-07 00:50:00,46.1,36.9,30.18,NW,306,0.0,4.0,70,0.00,,---,0.00,VWS V14.01,2013-04-07 04:50:00,
2013-04-07 00:55:00,46.0,36.8,30.18,NW,306,0.0,4.0,70,0.00,,---,0.00,VWS V14.01,2013-04-07 04:55:00,
2013-04-07 01:00:00,46.1,36.5,30.18,NW,305,2.0,5.0,69,0.00,,---,0.00,VWS V14.01,2013-04-07 05:00:00,
2013-04-07 01:05:00,47.4,36.2,30.18,WNW,290,4.0,5.0,65,0.00,,---,0.00,VWS V14.01,2013-04-07 05:05:00,
2013-04-07 01:10:00,48.3,36.3,30.18,WNW,289,4.0,5.0,63,0.00,,---,0.00,VWS V14.01,2013-04-07 05:10:00,
2013-04-07 01:15:00,48.5,36.5,30.18,West,270,5.0,5.0,63,0.00,,---,0.00,VWS V14.01,2013-04-07 05:15:00,
2013-04-07 01:20:00,49.3,36.0,30.19,West,267,3.0,7.0,60,0.00,,---,0.00,VWS V14.01,2013-04-07 05:20:00,
2013-04-07 01:25:00,49.3,36.0,30.19,West,270,5.0,5.0,60,0.00,,---,0.00,VWS V14.01,2013-04-07 05:25:00,
2013-04-07 01:30:00,49.1,35.8,30.19,West,272,4.0,6.0,60,0.00,,---,0.00,VWS V14.01,2013-04-07 05:30:00,
2013-04-07 01:35:00,48.4,36.4,30.19,West,272,2.0,5.0,63,0.00,,---,0.00,VWS V14.01,2013-04-07 05:35:00,
2013-04-07 01:40:00,47.5,36.3,30.19,West,270,5.0,5.0,65,0.00,,---,0.00,VWS V14.01,2013-04-07 05:40:00,
2013-04-07 01:45:00,47.8,36.2,30.19,WSW,242,4.0,5.0,64,0.00,,---,0.00,VWS V14.01,2013-04-07 05:45:00,
2013-04-07 01:50:00,48.4,36.0,30.19,West,266,2.0,5.0,62,0.00,,---,0.00,VWS V14.01,2013-04-07 05:50:00,
2013-04-07 01:55:00,48.2,36.2,30.19,West,271,4.0,5.0,63,0.00,,---,0.00,VWS V14.01,2013-04-07 05:55:00,
2013-04-07 02:00:00,47.5,36.3,30.19,West,271,1.0,5.0,65,0.00,,---,0.00,VWS V14.01,2013-04-07 06:00:00,
2013-04-07 02:05:00,46.8,36.8,30.18,West,271,1.0,4.0,68,0.00,,---,0.00,VWS V14.01,2013-04-07 06:05:00,
2013-04-07 02:10:00,46.2,37.0,30.18,West,271,4.0,4.0,70,0.00,,---,0.00,VWS V14.01,2013-04-07 06:10:00,
2013-04-07 02:15:00,45.5,37.7,30.17,West,271,0.0,4.0,74,0.00,,---,0.00,VWS V14.01,2013-04-07 06:15:00,
2013-04-07 02:20:00,45.2,37.4,30.17,West,271,0.0,0.0,74,0.00,,---,0.00,VWS V14.01,2013-04-07 06:20:00,
2013-04-07 02:25:00,45.3,36.8,30.17,West,273,0.0,2.0,72,0.00,,---,0.00,VWS V14.01,2013-04-07 06:25:00,
2013-04-07 02:30:00,45.3,37.2,30.17,West,273,0.0,2.0,73,0.00,,---,0.00,VWS V14.01,2013-04-07 06:30:00,
2013-04-07 02:35:00,45.0,37.6,30.17,West,273,0.0,0.0,75,0.00,,---,0.00,VWS V14.01,2013-04-07 06:35:00,
2013-04-07 02:40:00,44.6,37.2,30.17,West,273,0.0,2.0,75,0.00,,---,0.00,VWS V14.01,2013-04-07 06:40:00,
2013-04-07 02:45:00,44.6,37.8,30.17,West,273,0.0,2.0,77,0.00,,---,0.00,VWS V14.01,2013-04-07 06:45:00,
2013-04-07 02:50:00,44.4,37.3,30.17,West,273,0.0,2.0,76,0.00,,---,0.00,VWS V14.01,2013-04-07 06:50:00,
2013-04-07 02:55:00,44.2,37.5,30.17,West,273,0.0,0.0,77,0.00,,---,0.00,VWS V14.01,2013-04-07 06:55:00,
2013-04-07 03:00:00,43.8,36.7,30.17,West,273,0.0,1.0,76,0.00,,---,0.00,VWS V14.01,2013-04-07 07:00:00,
2013-04-07 03:05:00,43.7,37.0,30.17,West,273,0.0,0.0,77,0.00,,---,0.00,VWS V14.01,2013-04-07 07:05:00,
2013-04-07 03:10:00,43.7,37.0,30.17,West,273,0.0,0.0,77,0.00,,---,0.00,VWS V14.01,2013-04-07 07:10:00,
2013-04-07 03:15:00,43.7,37.0,30.17,West,273,0.0,0.0,77,0.00,,---,0.00,VWS V14.01,2013-04-07 07:15:00,
2013-04-07 03:20:00,43.3,36.3,30.17,West,273,0.0,2.0,76,0.00,,---,0.00,VWS V14.01,2013-04-07 07:20:00,
2013-04-07 03:25:00,43.3,36.6,30.17,West,273,0.0,0.0,77,0.00,,---,0.00,VWS V14.01,2013-04-07 07:25:00,
2013-04-07 03:30:00,43.1,36.4,30.17,West,276,0.0,4.0,77,0.00,,---,0.00,VWS V14.01,2013-04-07 07:30:00,
2013-04-07 03:35:00,42.7,36.3,30.17,West,276,0.0,0.0,78,0.00,,---,0.00,VWS V14.01,2013-04-07 07:35:00,
2013-04-07 03:40:00,43.1,36.4,30.17,West,276,0.0,2.0,77,0.00,,---,0.00,VWS V14.01,2013-04-07 07:40:00,
2013-04-07 03:45:00,42.9,36.5,30.17,West,275,0.0,4.0,78,0.00,,---,0.00,VWS V14.01,2013-04-07 07:45:00,
2013-04-07 03:50:00,42.8,36.1,30.17,West,276,0.0,1.0,77,0.00,,---,0.00,VWS V14.01,2013-04-07 07:50:00,
2013-04-07 03:55:00,42.7,36.7,30.17,WNW,300,0.0,4.0,79,0.00,,---,0.00,VWS V14.01,2013-04-07 07:55:00,
2013-04-07 04:00:00,42.3,36.6,30.17,WNW,300,0.0,1.0,80,0.00,,---,0.00,VWS V14.01,2013-04-07 08:00:00,
2013-04-07 04:05:00,42.2,36.2,30.17,WNW,300,1.0,2.0,79,0.00,,---,0.00,VWS V14.01,2013-04-07 08:05:00,
2013-04-07 04:10:00,42.4,36.7,30.17,WNW,300,0.0,2.0,80,0.00,,---,0.00,VWS V14.01,2013-04-07 08:10:00,
2013-04-07 04:15:00,42.3,36.6,30.17,WNW,300,0.0,0.0,80,0.00,,---,0.00,VWS V14.01,2013-04-07 08:15:00,
2013-04-07 04:20:00,42.2,36.5,30.17,WNW,300,0.0,1.0,80,0.00,,---,0.00,VWS V14.01,2013-04-07 08:20:00,
2013-04-07 04:25:00,42.1,36.4,30.17,WNW,300,0.0,0.0,80,0.00,,---,0.00,VWS V14.01,2013-04-07 08:25:00,
2013-04-07 04:30:00,41.9,36.2,30.17,WNW,300,0.0,0.0,80,0.00,,---,0.00,VWS V14.01,2013-04-07 08:30:00,
2013-04-07 04:35:00,41.7,36.6,30.17,WNW,300,0.0,0.0,82,0.00,,---,0.00,VWS V14.01,2013-04-07 08:35:00,
2013-04-07 04:40:00,41.4,36.3,30.17,WNW,300,0.0,2.0,82,0.00,,---,0.00,VWS V14.01,2013-04-07 08:40:00,
2013-04-07 04:45:00,40.8,36.0,30.17,WNW,300,0.0,2.0,83,0.00,,---,0.00,VWS V14.01,2013-04-07 08:45:00,
2013-04-07 04:50:00,40.9,35.8,30.17,WNW,300,0.0,0.0,82,0.00,,---,0.00,VWS V14.01,2013-04-07 08:50:00,
2013-04-07 04:55:00,41.2,36.1,30.17,WNW,300,0.0,0.0,82,0.00,,---,0.00,VWS V14.01,2013-04-07 08:55:00,
2013-04-07 05:00:00,41.1,35.7,30.18,WNW,300,0.0,2.0,81,0.00,,---,0.00,VWS V14.01,2013-04-07 09:00:00,
2013-04-07 05:05:00,41.1,36.0,30.17,WNW,300,2.0,2.0,82,0.00,,---,0.00,VWS V14.01,2013-04-07 09:05:00,
2013-04-07 05:10:00,40.9,36.1,30.17,WNW,300,1.0,2.0,83,0.00,,---,0.00,VWS V14.01,2013-04-07 09:10:00,
2013-04-07 05:15:00,40.6,36.2,30.17,WNW,300,0.0,2.0,84,0.00,,---,0.00,VWS V14.01,2013-04-07 09:15:00,
2013-04-07 05:20:00,40.7,36.0,30.17,WNW,300,0.0,1.0,83,0.00,,---,0.00,VWS V14.01,2013-04-07 09:20:00,
2013-04-07 05:25:00,40.6,35.8,30.17,WNW,300,0.0,0.0,83,0.00,,---,0.00,VWS V14.01,2013-04-07 09:25:00,
2013-04-07 05:30:00,40.6,35.8,30.18,WNW,300,0.0,0.0,83,0.00,,---,0.00,VWS V14.01,2013-04-07 09:30:00,
2013-04-07 05:35:00,40.6,36.2,30.18,WNW,300,0.0,0.0,84,0.00,,---,0.00,VWS V14.01,2013-04-07 09:35:00,
2013-04-07 05:40:00,40.3,35.6,30.18,WNW,300,0.0,2.0,83,0.00,,---,0.00,VWS V14.01,2013-04-07 09:40:00,
2013-04-07 05:45:00,40.1,36.3,30.18,WNW,300,0.0,0.0,86,0.00,,---,0.00,VWS V14.01,2013-04-07 09:45:00,
2013-04-07 05:50:00,40.2,35.8,30.18,WNW,300,0.0,0.0,84,0.00,,---,0.00,VWS V14.01,2013-04-07 09:50:00,
2013-04-07 05:55:00,39.9,35.8,30.18,WNW,300,0.0,0.0,85,0.00,,---,0.00,VWS V14.01,2013-04-07 09:55:00,
2013-04-07 06:00:00,39.7,35.6,30.18,WNW,300,0.0,0.0,85,0.00,,---,0.00,VWS V14.01,2013-04-07 10:00:00,
2013-04-07 06:05:00,39.9,36.1,30.18,WNW,300,0.0,0.0,86,0.00,,---,0.00,VWS V14.01,2013-04-07 10:05:00,
2013-04-07 06:10:00,39.8,35.7,30.18,WNW,300,0.0,0.0,85,0.00,,---,0.00,VWS V14.01,2013-04-07 10:10:00,
2013-04-07 06:15:00,40.3,36.8,30.18,WNW,300,0.0,0.0,87,0.00,,---,0.00,VWS V14.01,2013-04-07 10:15:00,
2013-04-07 06:20:00,40.4,36.5,30.18,WNW,300,0.0,0.0,86,0.00,,---,0.00,VWS V14.01,2013-04-07 10:20:00,
2013-04-07 06:25:00,40.5,36.7,30.18,WNW,300,0.0,0.0,86,0.00,,---,0.00,VWS V14.01,2013-04-07 10:25:00,
2013-04-07 06:30:00,40.3,36.5,30.18,WNW,300,0.0,0.0,86,0.00,,---,0.00,VWS V14.01,2013-04-07 10:30:00,
2013-04-07 06:35:00,40.4,36.8,30.18,WNW,300,0.0,0.0,87,0.00,,---,0.00,VWS V14.01,2013-04-07 10:35:00,
2013-04-07 06:40:00,40.9,37.3,30.19,WNW,300,2.0,2.0,87,0.00,,---,0.00,VWS V14.01,2013-04-07 10:40:00,
2013-04-07 06:45:00,41.1,37.8,30.19,WNW,300,0.0,2.0,88,0.00,,---,0.00,VWS V14.01,2013-04-07 10:45:00,
2013-04-07 06:50:00,41.0,37.4,30.19,WNW,300,0.0,0.0,87,0.00,,---,0.00,VWS V14.01,2013-04-07 10:50:00,
2013-04-07 06:55:00,41.1,37.5,30.18,WNW,300,0.0,0.0,87,0.00,,---,0.00,VWS V14.01,2013-04-07 10:55:00,
2013-04-07 07:00:00,41.1,37.5,30.19,WNW,300,0.0,0.0,87,0.00,,---,0.00,VWS V14.01,2013-04-07 11:00:00,
2013-04-07 07:05:00,41.0,37.4,30.18,WNW,300,0.0,0.0,87,0.00,,---,0.00,VWS V14.01,2013-04-07 11:05:00,
2013-04-07 07:10:00,40.9,37.3,30.19,WNW,300,0.0,0.0,87,0.00,,---,0.00,VWS V14.01,2013-04-07 11:10:00,
2013-04-07 07:15:00,40.9,37.3,30.19,WNW,300,0.0,1.0,87,0.00,,---,0.00,VWS V14.01,2013-04-07 11:15:00,
2013-04-07 07:20:00,41.1,37.8,30.20,WNW,300,0.0,0.0,88,0.00,,---,0.00,VWS V14.01,2013-04-07 11:20:00,
2013-04-07 07:25:00,41.3,38.0,30.19,WNW,300,0.0,0.0,88,0.00,,---,0.00,VWS V14.01,2013-04-07 11:25:00,
2013-04-07 07:30:00,41.5,37.9,30.19,WNW,300,0.0,0.0,87,0.00,,---,0.00,VWS V14.01,2013-04-07 11:30:00,
2013-04-07 07:35:00,41.9,38.3,30.20,WNW,300,0.0,0.0,87,0.00,,---,0.00,VWS V14.01,2013-04-07 11:35:00,
2013-04-07 07:40:00,42.4,38.8,30.20,WNW,300,0.0,0.0,87,0.00,,---,0.00,VWS V14.01,2013-04-07 11:40:00,
2013-04-07 07:45:00,43.2,39.0,30.20,WNW,300,0.0,0.0,85,0.00,,---,0.00,VWS V14.01,2013-04-07 11:45:00,
2013-04-07 07:50:00,44.0,39.2,30.20,WNW,300,0.0,0.0,83,0.00,,---,0.00,VWS V14.01,2013-04-07 11:50:00,
2013-04-07 07:55:00,44.6,38.8,30.20,WNW,286,0.0,0.0,80,0.00,,---,0.00,VWS V14.01,2013-04-07 11:55:00,
2013-04-07 08:00:00,44.9,39.1,30.20,WNW,286,0.0,0.0,80,0.00,,---,0.00,VWS V14.01,2013-04-07 12:00:00,
2013-04-07 08:05:00,45.2,38.4,30.20,WNW,286,0.0,0.0,77,0.00,,---,0.00,VWS V14.01,2013-04-07 12:05:00,
2013-04-07 08:10:00,45.5,39.0,30.20,WNW,286,0.0,0.0,78,0.00,,---,0.00,VWS V14.01,2013-04-07 12:10:00,
2013-04-07 08:15:00,45.8,39.0,30.20,WNW,286,0.0,0.0,77,0.00,,---,0.00,VWS V14.01,2013-04-07 12:15:00,
2013-04-07 08:20:00,45.9,39.1,30.20,WNW,286,0.0,1.0,77,0.00,,---,0.00,VWS V14.01,2013-04-07 12:20:00,
2013-04-07 08:25:00,46.1,39.6,30.21,WNW,286,1.0,2.0,78,0.00,,---,0.00,VWS V14.01,2013-04-07 12:25:00,
2013-04-07 08:30:00,46.3,39.8,30.21,WSW,254,3.0,4.0,78,0.00,,---,0.00,VWS V14.01,2013-04-07 12:30:00,
2013-04-07 08:35:00,46.7,40.5,30.21,SW,234,0.0,3.0,79,0.00,,---,0.00,VWS V14.01,2013-04-07 12:35:00,
2013-04-07 08:40:00,46.9,39.7,30.21,SW,234,1.0,3.0,76,0.00,,---,0.00,VWS V14.01,2013-04-07 12:40:00,
2013-04-07 08:45:00,47.2,40.0,30.21,SSW,211,4.0,4.0,76,0.00,,---,0.00,VWS V14.01,2013-04-07 12:45:00,
2013-04-07 08:50:00,47.6,40.4,30.20,SE,144,4.0,4.0,76,0.00,,---,0.00,VWS V14.01,2013-04-07 12:50:00,
2013-04-07 08:55:00,48.1,40.9,30.20,SSE,163,4.0,6.0,76,0.00,,---,0.00,VWS V14.01,2013-04-07 12:55:00,
2013-04-07 09:00:00,48.1,40.6,30.21,SSE,152,2.0,6.0,75,0.00,,---,0.00,VWS V14.01,2013-04-07 13:00:00,
2013-04-07 09:05:00,48.2,40.7,30.21,SSE,156,5.0,7.0,75,0.00,,---,0.00,VWS V14.01,2013-04-07 13:05:00,
2013-04-07 09:10:00,48.4,40.5,30.20,SSE,153,5.0,7.0,74,0.00,,---,0.00,VWS V14.01,2013-04-07 13:10:00,
2013-04-07 09:15:00,48.6,41.0,30.20,SSE,165,2.0,7.0,75,0.00,,---,0.00,VWS V14.01,2013-04-07 13:15:00,
2013-04-07 09:20:00,48.9,41.0,30.20,SSE,159,4.0,6.0,74,0.00,,---,0.00,VWS V14.01,2013-04-07 13:20:00,
2013-04-07 09:25:00,49.1,40.8,30.20,SSE,154,4.0,7.0,73,0.00,,---,0.00,VWS V14.01,2013-04-07 13:25:00,
2013-04-07 09:30:00,49.5,41.6,30.20,South,176,4.0,6.0,74,0.00,,---,0.00,VWS V14.01,2013-04-07 13:30:00,
2013-04-07 09:35:00,49.7,42.1,30.20,SE,130,2.0,8.0,75,0.00,,---,0.00,VWS V14.01,2013-04-07 13:35:00,
2013-04-07 09:40:00,50.5,42.2,30.21,South,175,4.0,7.0,73,0.00,,---,0.00,VWS V14.01,2013-04-07 13:40:00,
2013-04-07 09:45:00,51.0,42.7,30.21,South,184,5.0,8.0,73,0.00,,---,0.00,VWS V14.01,2013-04-07 13:45:00,
2013-04-07 09:50:00,51.9,42.4,30.20,SW,221,5.0,11.0,70,0.00,,---,0.00,VWS V14.01,2013-04-07 13:50:00,
2013-04-07 09:55:00,52.4,42.2,30.20,South,169,9.0,11.0,68,0.00,,---,0.00,VWS V14.01,2013-04-07 13:55:00,
2013-04-07 10:00:00,52.7,42.8,30.20,WSW,258,6.0,11.0,69,0.00,,---,0.00,VWS V14.01,2013-04-07 14:00:00,
2013-04-07 10:05:00,52.7,42.1,30.21,West,260,1.0,13.0,67,0.00,,---,0.00,VWS V14.01,2013-04-07 14:05:00,
2013-04-07 10:10:00,53.1,42.1,30.21,SSW,209,3.0,9.0,66,0.00,,---,0.00,VWS V14.01,2013-04-07 14:10:00,
2013-04-07 10:15:00,53.1,42.1,30.21,South,178,5.0,13.0,66,0.00,,---,0.00,VWS V14.01,2013-04-07 14:15:00,
2013-04-07 10:20:00,53.5,42.0,30.21,SW,217,3.0,13.0,65,0.00,,---,0.00,VWS V14.01,2013-04-07 14:20:00,
2013-04-07 10:25:00,53.7,42.2,30.21,West,262,6.0,12.0,65,0.00,,---,0.00,VWS V14.01,2013-04-07 14:25:00,
2013-04-07 10:30:00,54.2,42.7,30.21,SW,229,5.0,13.0,65,0.00,,---,0.00,VWS V14.01,2013-04-07 14:30:00,
2013-04-07 10:35:00,54.2,42.3,30.20,SSW,204,4.0,12.0,64,0.00,,---,0.00,VWS V14.01,2013-04-07 14:35:00,
2013-04-07 10:40:00,54.6,43.1,30.20,WNW,298,4.0,11.0,65,0.00,,---,0.00,VWS V14.01,2013-04-07 14:40:00,
2013-04-07 10:45:00,55.4,42.6,30.20,SW,220,7.0,11.0,62,0.00,,---,0.00,VWS V14.01,2013-04-07 14:45:00,
2013-04-07 10:50:00,55.5,42.7,30.20,West,279,6.0,13.0,62,0.00,,---,0.00,VWS V14.01,2013-04-07 14:50:00,
2013-04-07 10:55:00,55.9,42.7,30.20,SW,221,8.0,12.0,61,0.00,,---,0.00,VWS V14.01,2013-04-07 14:55:00,
2013-04-07 11:00:00,56.4,43.6,30.20,SSW,203,5.0,10.0,62,0.00,,---,0.00,VWS V14.01,2013-04-07 15:00:00,
2013-04-07 11:05:00,56.3,42.2,30.20,West,271,9.0,12.0,59,0.00,,---,0.00,VWS V14.01,2013-04-07 15:05:00,
2013-04-07 11:10:00,56.1,42.8,30.21,SSW,209,8.0,14.0,61,0.00,,---,0.00,VWS V14.01,2013-04-07 15:10:00,
2013-04-07 11:15:00,57.1,43.4,30.20,SSW,208,9.0,12.0,60,0.00,,---,0.00,VWS V14.01,2013-04-07 15:15:00,
2013-04-07 11:20:00,57.3,43.5,30.21,West,273,8.0,14.0,60,0.00,,---,0.00,VWS V14.01,2013-04-07 15:20:00,
2013-04-07 11:25:00,57.1,44.2,30.20,SSW,199,9.0,14.0,62,0.00,,---,0.00,VWS V14.01,2013-04-07 15:25:00,
2013-04-07 11:30:00,57.6,43.8,30.20,SW,217,9.0,16.0,60,0.00,,---,0.00,VWS V14.01,2013-04-07 15:30:00,
2013-04-07 11:35:00,57.4,43.2,30.21,WSW,238,4.0,11.0,59,0.00,,---,0.00,VWS V14.01,2013-04-07 15:35:00,
2013-04-07 11:40:00,57.1,42.9,30.20,West,269,5.0,13.0,59,0.00,,---,0.00,VWS V14.01,2013-04-07 15:40:00,
2013-04-07 11:45:00,56.9,43.2,30.20,SW,229,8.0,13.0,60,0.00,,---,0.00,VWS V14.01,2013-04-07 15:45:00,
2013-04-07 11:50:00,56.6,42.5,30.20,WSW,252,5.0,10.0,59,0.00,,---,0.00,VWS V14.01,2013-04-07 15:50:00,
2013-04-07 11:55:00,57.5,44.2,30.19,West,273,2.0,11.0,61,0.00,,---,0.00,VWS V14.01,2013-04-07 15:55:00,
2013-04-07 12:00:00,58.0,43.8,30.19,West,281,8.0,11.0,59,0.00,,---,0.00,VWS V14.01,2013-04-07 16:00:00,
2013-04-07 12:05:00,58.7,43.5,30.19,WNW,289,5.0,15.0,57,0.00,,---,0.00,VWS V14.01,2013-04-07 16:05:00,
2013-04-07 12:10:00,59.1,43.4,30.19,WSW,248,5.0,12.0,56,0.00,,---,0.00,VWS V14.01,2013-04-07 16:10:00,
2013-04-07 12:15:00,60.1,43.9,30.19,SW,218,3.0,13.0,55,0.00,,---,0.00,VWS V14.01,2013-04-07 16:15:00,
2013-04-07 12:20:00,61.1,43.4,30.18,SSW,209,7.0,12.0,52,0.00,,---,0.00,VWS V14.01,2013-04-07 16:20:00,
2013-04-07 12:25:00,60.6,45.8,30.19,South,190,3.0,15.0,58,0.00,,---,0.00,VWS V14.01,2013-04-07 16:25:00,
2013-04-07 12:30:00,61.4,45.6,30.18,WSW,252,5.0,10.0,56,0.00,,---,0.00,VWS V14.01,2013-04-07 16:30:00,
2013-04-07 12:35:00,61.9,44.1,30.18,West,278,8.0,12.0,52,0.00,,---,0.00,VWS V14.01,2013-04-07 16:35:00,
2013-04-07 12:40:00,61.9,44.6,30.18,SW,220,9.0,11.0,53,0.00,,---,0.00,VWS V14.01,2013-04-07 16:40:00,
2013-04-07 12:45:00,61.3,44.5,30.17,SSW,202,2.0,13.0,54,0.00,,---,0.00,VWS V14.01,2013-04-07 16:45:00,
2013-04-07 12:50:00,61.9,45.1,30.17,South,182,7.0,9.0,54,0.00,,---,0.00,VWS V14.01,2013-04-07 16:50:00,
2013-04-07 12:55:00,62.6,44.8,30.17,WSW,239,5.0,10.0,52,0.00,,---,0.00,VWS V14.01,2013-04-07 16:55:00,
2013-04-07 13:00:00,62.8,45.4,30.16,SSW,207,10.0,13.0,53,0.00,,---,0.00,VWS V14.01,2013-04-07 17:00:00,
2013-04-07 13:05:00,62.3,44.0,30.16,SW,215,4.0,13.0,51,0.00,,---,0.00,VWS V14.01,2013-04-07 17:05:00,
2013-04-07 13:10:00,62.3,43.4,30.16,West,269,4.0,12.0,50,0.00,,---,0.00,VWS V14.01,2013-04-07 17:10:00,
2013-04-07 13:15:00,63.1,44.2,30.15,SSW,202,6.0,13.0,50,0.00,,---,0.00,VWS V14.01,2013-04-07 17:15:00,
2013-04-07 13:20:00,64.0,46.0,30.15,WNW,300,8.0,12.0,52,0.00,,---,0.00,VWS V14.01,2013-04-07 17:20:00,
2013-04-07 13:25:00,64.1,44.0,30.16,WSW,247,2.0,12.0,48,0.00,,---,0.00,VWS V14.01,2013-04-07 17:25:00,
2013-04-07 13:30:00,64.0,43.9,30.15,West,271,0.0,12.0,48,0.00,,---,0.00,VWS V14.01,2013-04-07 17:30:00,
2013-04-07 13:35:00,64.1,46.1,30.14,SW,216,6.0,7.0,52,0.00,,---,0.00,VWS V14.01,2013-04-07 17:35:00,
2013-04-07 13:40:00,65.0,45.4,30.14,WSW,255,13.0,18.0,49,0.00,,---,0.00,VWS V14.01,2013-04-07 17:40:00,
2013-04-07 13:45:00,64.9,44.2,30.14,West,281,11.0,13.0,47,0.00,,---,0.00,VWS V14.01,2013-04-07 17:45:00,
2013-04-07 13:50:00,65.2,45.0,30.14,West,280,7.0,12.0,48,0.00,,---,0.00,VWS V14.01,2013-04-07 17:50:00,
2013-04-07 13:55:00,65.6,46.0,30.13,SW,217,10.0,11.0,49,0.00,,---,0.00,VWS V14.01,2013-04-07 17:55:00,
2013-04-07 14:00:00,65.6,45.4,30.13,SSW,195,4.0,13.0,48,0.00,,---,0.00,VWS V14.01,2013-04-07 18:00:00,
2013-04-07 14:05:00,65.1,45.5,30.12,SSE,167,4.0,13.0,49,0.00,,---,0.00,VWS V14.01,2013-04-07 18:05:00,
2013-04-07 14:10:00,65.5,45.3,30.12,SSW,197,7.0,10.0,48,0.00,,---,0.00,VWS V14.01,2013-04-07 18:10:00,
2013-04-07 14:15:00,65.3,44.6,30.12,SSW,209,7.0,12.0,47,0.00,,---,0.00,VWS V14.01,2013-04-07 18:15:00,
2013-04-07 14:20:00,65.0,44.8,30.11,SW,230,4.0,10.0,48,0.00,,---,0.00,VWS V14.01,2013-04-07 18:20:00,
2013-04-07 14:25:00,65.4,44.7,30.11,West,280,5.0,11.0,47,0.00,,---,0.00,VWS V14.01,2013-04-07 18:25:00,
2013-04-07 14:30:00,65.3,46.2,30.11,WSW,251,4.0,10.0,50,0.00,,---,0.00,VWS V14.01,2013-04-07 18:30:00,
2013-04-07 14:35:00,65.5,46.4,30.10,SW,229,11.0,13.0,50,0.00,,---,0.00,VWS V14.01,2013-04-07 18:35:00,
2013-04-07 14:40:00,65.3,45.7,30.10,SSW,202,4.0,13.0,49,0.00,,---,0.00,VWS V14.01,2013-04-07 18:40:00,
2013-04-07 14:45:00,65.5,46.4,30.10,WSW,246,5.0,12.0,50,0.00,,---,0.00,VWS V14.01,2013-04-07 18:45:00,
2013-04-07 14:50:00,65.6,45.4,30.10,SSW,211,6.0,14.0,48,0.00,,---,0.00,VWS V14.01,2013-04-07 18:50:00,
2013-04-07 14:55:00,65.0,45.4,30.09,NNW,338,2.0,12.0,49,0.00,,---,0.00,VWS V14.01,2013-04-07 18:55:00,
2013-04-07 15:00:00,65.0,45.9,30.09,South,175,8.0,11.0,50,0.00,,---,0.00,VWS V14.01,2013-04-07 19:00:00,
2013-04-07 15:05:00,65.5,46.9,30.09,WSW,245,3.0,12.0,51,0.00,,---,0.00,VWS V14.01,2013-04-07 19:05:00,
2013-04-07 15:10:00,66.6,45.8,30.09,South,176,5.0,10.0,47,0.00,,---,0.00,VWS V14.01,2013-04-07 19:10:00,
2013-04-07 15:15:00,66.9,47.1,30.09,SW,221,5.0,10.0,49,0.00,,---,0.00,VWS V14.01,2013-04-07 19:15:00,
2013-04-07 15:20:00,66.6,47.4,30.09,SE,140,8.0,11.0,50,0.00,,---,0.00,VWS V14.01,2013-04-07 19:20:00,
2013-04-07 15:25:00,66.5,47.8,30.09,SSE,155,4.0,11.0,51,0.00,,---,0.00,VWS V14.01,2013-04-07 19:25:00,
2013-04-07 15:30:00,66.8,47.6,30.09,ESE,114,9.0,13.0,50,0.00,,---,0.00,VWS V14.01,2013-04-07 19:30:00,
2013-04-07 15:35:00,67.2,48.0,30.08,SSW,192,7.0,13.0,50,0.00,,---,0.00,VWS V14.01,2013-04-07 19:35:00,
2013-04-07 15:40:00,67.1,47.3,30.08,South,171,10.0,12.0,49,0.00,,---,0.00,VWS V14.01,2013-04-07 19:40:00,
2013-04-07 15:45:00,67.5,47.7,30.08,SSW,197,8.0,11.0,49,0.00,,---,0.00,VWS V14.01,2013-04-07 19:45:00,
2013-04-07 15:50:00,67.4,48.1,30.07,South,173,7.0,12.0,50,0.00,,---,0.00,VWS V14.01,2013-04-07 19:50:00,
2013-04-07 15:55:00,67.2,46.9,30.07,WSW,257,7.0,11.0,48,0.00,,---,0.00,VWS V14.01,2013-04-07 19:55:00,
2013-04-07 16:00:00,67.4,45.9,30.07,SSW,207,9.0,12.0,46,0.00,,---,0.00,VWS V14.01,2013-04-07 20:00:00,
2013-04-07 16:05:00,66.8,46.5,30.07,SSW,210,3.0,11.0,48,0.00,,---,0.00,VWS V14.01,2013-04-07 20:05:00,
2013-04-07 16:10:00,66.8,47.0,30.07,SSE,152,2.0,6.0,49,0.00,,---,0.00,VWS V14.01,2013-04-07 20:10:00,
2013-04-07 16:15:00,67.0,47.8,30.07,South,175,2.0,11.0,50,0.00,,---,0.00,VWS V14.01,2013-04-07 20:15:00,
2013-04-07 16:20:00,67.0,47.8,30.07,SSW,209,6.0,9.0,50,0.00,,---,0.00,VWS V14.01,2013-04-07 20:20:00,
2013-04-07 16:25:00,66.9,47.7,30.06,SSW,213,4.0,11.0,50,0.00,,---,0.00,VWS V14.01,2013-04-07 20:25:00,
2013-04-07 16:30:00,67.1,46.8,30.07,South,186,9.0,10.0,48,0.00,,---,0.00,VWS V14.01,2013-04-07 20:30:00,
2013-04-07 16:35:00,66.9,47.1,30.07,WSW,250,1.0,13.0,49,0.00,,---,0.00,VWS V14.01,2013-04-07 20:35:00,
2013-04-07 16:40:00,67.0,47.2,30.07,SW,219,3.0,11.0,49,0.00,,---,0.00,VWS V14.01,2013-04-07 20:40:00,
2013-04-07 16:45:00,67.0,46.7,30.07,SW,215,5.0,11.0,48,0.00,,---,0.00,VWS V14.01,2013-04-07 20:45:00,
2013-04-07 16:50:00,66.8,48.1,30.06,SE,140,9.0,12.0,51,0.00,,---,0.00,VWS V14.01,2013-04-07 20:50:00,
2013-04-07 16:55:00,66.7,47.0,30.06,SW,232,5.0,11.0,49,0.00,,---,0.00,VWS V14.01,2013-04-07 20:55:00,
2013-04-07 17:00:00,67.4,46.5,30.06,SSW,213,9.0,10.0,47,0.00,,---,0.00,VWS V14.01,2013-04-07 21:00:00,
2013-04-07 17:05:00,67.4,45.9,30.06,South,169,5.0,12.0,46,0.00,,---,0.00,VWS V14.01,2013-04-07 21:05:00,
2013-04-07 17:10:00,67.3,47.5,30.06,South,186,9.0,9.0,49,0.00,,---,0.00,VWS V14.01,2013-04-07 21:10:00,
2013-04-07 17:15:00,67.0,47.2,30.06,SSW,194,2.0,11.0,49,0.00,,---,0.00,VWS V14.01,2013-04-07 21:15:00,
2013-04-07 17:20:00,66.6,46.3,30.06,SSW,202,4.0,11.0,48,0.00,,---,0.00,VWS V14.01,2013-04-07 21:20:00,
2013-04-07 17:25:00,66.7,45.8,30.07,West,267,8.0,13.0,47,0.00,,---,0.00,VWS V14.01,2013-04-07 21:25:00,
2013-04-07 17:30:00,67.0,46.7,30.06,SSW,195,4.0,8.0,48,0.00,,---,0.00,VWS V14.01,2013-04-07 21:30:00,
2013-04-07 17:35:00,67.0,46.1,30.06,South,185,7.0,13.0,47,0.00,,---,0.00,VWS V14.01,2013-04-07 21:35:00,
2013-04-07 17:40:00,67.0,47.2,30.06,SSW,198,6.0,9.0,49,0.00,,---,0.00,VWS V14.01,2013-04-07 21:40:00,
2013-04-07 17:45:00,67.4,46.5,30.06,SW,221,5.0,12.0,47,0.00,,---,0.00,VWS V14.01,2013-04-07 21:45:00,
2013-04-07 17:50:00,67.4,45.9,30.06,South,183,4.0,12.0,46,0.00,,---,0.00,VWS V14.01,2013-04-07 21:50:00,
2013-04-07 17:55:00,67.2,46.9,30.06,SW,232,5.0,12.0,48,0.00,,---,0.00,VWS V14.01,2013-04-07 21:55:00,
2013-04-07 18:00:00,66.7,46.4,30.06,SW,225,8.0,16.0,48,0.00,,---,0.00,VWS V14.01,2013-04-07 22:00:00,
2013-04-07 18:05:00,66.4,46.7,30.06,South,187,4.0,12.0,49,0.00,,---,0.00,VWS V14.01,2013-04-07 22:05:00,
2013-04-07 18:10:00,66.6,46.3,30.06,SSW,211,9.0,15.0,48,0.00,,---,0.00,VWS V14.01,2013-04-07 22:10:00,
2013-04-07 18:15:00,66.7,46.4,30.06,WSW,258,3.0,10.0,48,0.00,,---,0.00,VWS V14.01,2013-04-07 22:15:00,
2013-04-07 18:20:00,66.7,46.4,30.06,SSW,200,3.0,12.0,48,0.00,,---,0.00,VWS V14.01,2013-04-07 22:20:00,
2013-04-07 18:25:00,66.5,46.2,30.07,South,183,7.0,11.0,48,0.00,,---,0.00,VWS V14.01,2013-04-07 22:25:00,
2013-04-07 18:30:00,66.4,46.1,30.07,South,177,2.0,13.0,48,0.00,,---,0.00,VWS V14.01,2013-04-07 22:30:00,
2013-04-07 18:35:00,66.3,46.6,30.07,SSW,210,5.0,12.0,49,0.00,,---,0.00,VWS V14.01,2013-04-07 22:35:00,
2013-04-07 18:40:00,66.0,46.8,30.06,SSW,200,7.0,12.0,50,0.00,,---,0.00,VWS V14.01,2013-04-07 22:40:00,
2013-04-07 18:45:00,65.9,46.2,30.06,SW,214,4.0,10.0,49,0.00,,---,0.00,VWS V14.01,2013-04-07 22:45:00,
2013-04-07 18:50:00,65.9,46.2,30.06,SW,230,3.0,7.0,49,0.00,,---,0.00,VWS V14.01,2013-04-07 22:50:00,
2013-04-07 18:55:00,65.9,46.8,30.07,WNW,296,4.0,7.0,50,0.00,,---,0.00,VWS V14.01,2013-04-07 22:55:00,
2013-04-07 19:00:00,65.8,46.1,30.07,SSW,211,1.0,7.0,49,0.00,,---,0.00,VWS V14.01,2013-04-07 23:00:00,
2013-04-07 19:05:00,65.5,45.8,30.07,South,189,6.0,12.0,49,0.00,,---,0.00,VWS V14.01,2013-04-07 23:05:00,
2013-04-07 19:10:00,65.3,46.2,30.07,SW,217,5.0,12.0,50,0.00,,---,0.00,VWS V14.01,2013-04-07 23:10:00,
2013-04-07 19:15:00,65.2,46.1,30.07,SW,216,4.0,11.0,50,0.00,,---,0.00,VWS V14.01,2013-04-07 23:15:00,
2013-04-07 19:20:00,65.0,45.9,30.07,SW,217,4.0,9.0,50,0.00,,---,0.00,VWS V14.01,2013-04-07 23:20:00,
2013-04-07 19:25:00,64.8,46.3,30.07,SW,229,3.0,6.0,51,0.00,,---,0.00,VWS V14.01,2013-04-07 23:25:00,
2013-04-07 19:30:00,64.6,46.1,30.07,SSW,201,5.0,8.0,51,0.00,,---,0.00,VWS V14.01,2013-04-07 23:30:00,
2013-04-07 19:35:00,64.5,46.0,30.07,SSW,206,9.0,11.0,51,0.00,,---,0.00,VWS V14.01,2013-04-07 23:35:00,
2013-04-07 19:40:00,64.2,45.7,30.07,West,261,5.0,9.0,51,0.00,,---,0.00,VWS V14.01,2013-04-07 23:40:00,
2013-04-07 19:45:00,64.0,46.0,30.07,SW,234,3.0,8.0,52,0.00,,---,0.00,VWS V14.01,2013-04-07 23:45:00,
2013-04-07 19:50:00,63.7,45.8,30.07,SW,222,1.0,5.0,52,0.00,,---,0.00,VWS V14.01,2013-04-07 23:50:00,
2013-04-07 19:55:00,63.4,45.5,30.07,WSW,255,3.0,5.0,52,0.00,,---,0.00,VWS V14.01,2013-04-07 23:55:00,
2013-04-07 20:00:00,63.1,46.2,30.07,WSW,238,2.0,4.0,54,0.00,,---,0.00,VWS V14.01,2013-04-08 00:00:00,
2013-04-07 20:05:00,62.8,45.9,30.07,West,274,12.0,12.0,54,0.00,,---,0.00,VWS V14.01,2013-04-08 00:05:00,
2013-04-07 20:10:00,62.7,45.8,30.08,West,261,3.0,12.0,54,0.00,,---,0.00,VWS V14.01,2013-04-08 00:10:00,
2013-04-07 20:15:00,62.7,45.8,30.08,West,267,3.0,5.0,54,0.00,,---,0.00,VWS V14.01,2013-04-08 00:15:00,
2013-04-07 20:20:00,62.0,45.7,30.08,West,271,4.0,6.0,55,0.00,,---,0.00,VWS V14.01,2013-04-08 00:20:00,
2013-04-07 20:25:00,61.6,45.8,30.08,West,270,1.0,5.0,56,0.00,,---,0.00,VWS V14.01,2013-04-08 00:25:00,
2013-04-07 20:30:00,60.6,45.8,30.08,West,262,2.0,4.0,58,0.00,,---,0.00,VWS V14.01,2013-04-08 00:30:00,
2013-04-07 20:35:00,59.8,45.5,30.08,West,259,1.0,4.0,59,0.00,,---,0.00,VWS V14.01,2013-04-08 00:35:00,
2013-04-07 20:40:00,59.5,45.6,30.09,West,260,2.0,4.0,60,0.00,,---,0.00,VWS V14.01,2013-04-08 00:40:00,
2013-04-07 20:45:00,58.7,45.7,30.08,WSW,244,3.0,4.0,62,0.00,,---,0.00,VWS V14.01,2013-04-08 00:45:00,
2013-04-07 20:50:00,58.9,45.5,30.09,WSW,246,3.0,3.0,61,0.00,,---,0.00,VWS V14.01,2013-04-08 00:50:00,
2013-04-07 20:55:00,58.5,45.5,30.09,WSW,248,2.0,6.0,62,0.00,,---,0.00,VWS V14.01,2013-04-08 00:55:00,
2013-04-07 21:00:00,58.5,45.5,30.09,WSW,248,1.0,4.0,62,0.00,,---,0.00,VWS V14.01,2013-04-08 01:00:00,
2013-04-07 21:05:00,58.2,45.7,30.09,West,269,2.0,3.0,63,0.00,,---,0.00,VWS V14.01,2013-04-08 01:05:00,
2013-04-07 21:10:00,57.3,45.7,30.09,West,273,1.0,4.0,65,0.00,,---,0.00,VWS V14.01,2013-04-08 01:10:00,
2013-04-07 21:15:00,57.2,45.6,30.09,West,265,1.0,4.0,65,0.00,,---,0.00,VWS V14.01,2013-04-08 01:15:00,
2013-04-07 21:20:00,57.2,45.6,30.09,West,267,1.0,4.0,65,0.00,,---,0.00,VWS V14.01,2013-04-08 01:20:00,
2013-04-07 21:25:00,56.8,45.6,30.10,West,271,4.0,4.0,66,0.00,,---,0.00,VWS V14.01,2013-04-08 01:25:00,
2013-04-07 21:30:00,56.4,45.6,30.09,West,271,2.0,4.0,67,0.00,,---,0.00,VWS V14.01,2013-04-08 01:30:00,
2013-04-07 21:35:00,55.8,45.4,30.10,WNW,299,4.0,5.0,68,0.00,,---,0.00,VWS V14.01,2013-04-08 01:35:00,
2013-04-07 21:40:00,55.6,45.6,30.09,WNW,296,0.0,5.0,69,0.00,,---,0.00,VWS V14.01,2013-04-08 01:40:00,
2013-04-07 21:45:00,55.3,45.3,30.09,WNW,289,0.0,6.0,69,0.00,,---,0.00,VWS V14.01,2013-04-08 01:45:00,
2013-04-07 21:50:00,55.3,45.3,30.09,WNW,284,0.0,5.0,69,0.00,,---,0.00,VWS V14.01,2013-04-08 01:50:00,
2013-04-07 21:55:00,55.7,45.7,30.10,WNW,284,1.0,4.0,69,0.00,,---,0.00,VWS V14.01,2013-04-08 01:55:00,
2013-04-07 22:00:00,55.1,45.9,30.09,WNW,284,0.0,2.0,71,0.00,,---,0.00,VWS V14.01,2013-04-08 02:00:00,
2013-04-07 22:05:00,54.6,45.8,30.10,WNW,284,0.0,2.0,72,0.00,,---,0.00,VWS V14.01,2013-04-08 02:05:00,
2013-04-07 22:10:00,54.3,46.9,30.10,WNW,284,0.0,0.0,76,0.00,,---,0.00,VWS V14.01,2013-04-08 02:10:00,
2013-04-07 22:15:00,54.2,45.8,30.10,WNW,284,0.0,0.0,73,0.00,,---,0.00,VWS V14.01,2013-04-08 02:15:00,
2013-04-07 22:20:00,54.1,45.7,30.10,WNW,284,0.0,2.0,73,0.00,,---,0.00,VWS V14.01,2013-04-08 02:20:00,
2013-04-07 22:25:00,53.9,45.8,30.10,WNW,284,0.0,2.0,74,0.00,,---,0.00,VWS V14.01,2013-04-08 02:25:00,
2013-04-07 22:30:00,53.7,45.3,30.09,WNW,284,0.0,4.0,73,0.00,,---,0.00,VWS V14.01,2013-04-08 02:30:00,
2013-04-07 22:35:00,53.5,45.8,30.09,WNW,284,0.0,1.0,75,0.00,,---,0.00,VWS V14.01,2013-04-08 02:35:00,
2013-04-07 22:40:00,53.4,45.7,30.09,WNW,284,0.0,2.0,75,0.00,,---,0.00,VWS V14.01,2013-04-08 02:40:00,
2013-04-07 22:45:00,53.7,45.6,30.09,WNW,284,2.0,4.0,74,0.00,,---,0.00,VWS V14.01,2013-04-08 02:45:00,
2013-04-07 22:50:00,54.0,45.5,30.09,WNW,284,0.0,4.0,73,0.00,,---,0.00,VWS V14.01,2013-04-08 02:50:00,
2013-04-07 22:55:00,54.4,46.3,30.09,West,277,4.0,5.0,74,0.00,,---,0.00,VWS V14.01,2013-04-08 02:55:00,
2013-04-07 23:00:00,54.8,45.6,30.09,West,277,2.0,4.0,71,0.00,,---,0.00,VWS V14.01,2013-04-08 03:00:00,
2013-04-07 23:05:00,55.4,45.8,30.09,West,262,0.0,4.0,70,0.00,,---,0.00,VWS V14.01,2013-04-08 03:05:00,
2013-04-07 23:10:00,55.9,45.5,30.09,West,262,0.0,2.0,68,0.00,,---,0.00,VWS V14.01,2013-04-08 03:10:00,
2013-04-07 23:15:00,55.6,45.6,30.09,West,275,0.0,5.0,69,0.00,,---,0.00,VWS V14.01,2013-04-08 03:15:00,
2013-04-07 23:20:00,55.2,45.6,30.09,West,275,2.0,5.0,70,0.00,,---,0.00,VWS V14.01,2013-04-08 03:20:00,
2013-04-07 23:25:00,54.8,45.6,30.09,West,273,0.0,5.0,71,0.00,,---,0.00,VWS V14.01,2013-04-08 03:25:00,
2013-04-07 23:30:00,55.2,45.6,30.08,West,277,2.0,5.0,70,0.00,,---,0.00,VWS V14.01,2013-04-08 03:30:00,
2013-04-07 23:35:00,54.4,45.6,30.08,West,277,1.0,4.0,72,0.00,,---,0.00,VWS V14.01,2013-04-08 03:35:00,
2013-04-07 23:40:00,54.2,45.8,30.08,WNW,296,0.0,5.0,73,0.00,,---,0.00,VWS V14.01,2013-04-08 03:40:00,
2013-04-07 23:45:00,54.4,45.2,30.08,WNW,289,5.0,5.0,71,0.00,,---,0.00,VWS V14.01,2013-04-08 03:45:00,
2013-04-07 23:50:00,54.6,45.4,30.08,WSW,258,2.0,5.0,71,0.00,,---,0.00,VWS V14.01,2013-04-08 03:50:00,
2013-04-07 23:55:00,54.6,45.4,30.08,West,267,2.0,3.0,71,0.00,,---,0.00,VWS V14.01,2013-04-08 03:55:00,